W0SS-13 Weather Reports


time (UTC)temp
C
wind
direction
speed
KPH
gust
KPH
rain 1hr
cm
rain 24hr
cm
rain mn
cm
humidity
%
barometer
mb
20260505071202 11 3 12.9 16.1 0.61 0.43 0.43 71 1010.3
20260505070659 11 12 11.3 12.9 0.30 0.38 0.38 73 1010.1
20260505070155 12 336 9.7 14.5 0.13 0.33 0.33 75 1009.9
20260505065651 12 358 12.9 16.1 0.13 0.33 0.33 72 1009.2
20260505065148 12 356 6.4 6.4 0.00 0.30 0.30 72 1008.9
20260505064645 12 352 8.0 9.7 0.18 0.30 0.30 71 1009.0
20260505064143 13 334 8.0 9.7 0.18 0.30 0.30 70 1009.0
20260505063640 13 27 4.8 12.9 0.00 0.28 0.28 71 1008.3
20260505063136 13 346 6.4 9.7 0.00 0.28 0.28 71 1008.1
20260505062633 14 9 6.4 6.4 0.00 0.28 0.28 73 1008.2
20260505062130 13 353 9.7 12.9 0.13 0.28 0.28 75 1007.8
20260505061627 13 29 8.0 9.7 0.30 0.28 0.28 77 1007.6
20260505061125 13 2 0.0 1.6 0.36 0.25 0.25 81 1007.4
20260505060622 13 332 4.8 4.8 0.30 0.23 0.23 80 1007.8
20260505060119 14 313 1.6 1.6 0.61 0.20 0.20 76 1007.5
20260505055614 14 91 4.8 4.8 0.79 0.18 0.18 76 1007.1
20260505055111 15 80 4.8 4.8 0.61 0.10 0.10 74 1006.4
20260505054608 15 339 8.0 9.7 0.30 0.05 0.05 71 1006.2
20260505054107 16 355 8.0 11.3 0.00 0.00 0.00 68 1006.1
20260505053603 17 10 8.0 9.7 0.00 0.00 0.00 63 1006.0
20260505053100 17 27 6.4 9.7 0.00 0.00 0.00 58 1006.0
20260505052557 18 48 12.9 14.5 0.00 0.00 0.00 52 1005.7
20260505052054 18 52 11.3 14.5 0.00 0.00 0.00 53 1005.7
20260505051551 18 343 9.7 12.9 0.00 0.00 0.00 55 1006.0
20260505051049 19 354 9.7 14.5 0.00 0.00 0.00 52 1005.9
20260505050547 20 42 12.9 16.1 0.00 0.00 0.00 48 1005.5
20260505041515 21 186 8.0 11.3 0.00 0.00 0.00 71 1004.3
20260505041012 21 190 11.3 12.9 0.00 0.00 0.00 71 1004.4
20260505040509 21 213 8.0 11.3 0.00 0.00 0.00 71 1004.7
20260505040007 21 211 6.4 11.3 0.00 0.00 0.00 71 1004.7
20260505035502 21 199 8.0 9.7 0.00 0.00 0.00 71 1004.6
20260505035000 20 175 8.0 11.3 0.00 0.00 0.00 71 1004.6
20260505034456 21 179 8.0 9.7 0.00 0.00 0.00 71 1004.7
20260505033953 21 186 8.0 11.3 0.00 0.00 0.00 70 1004.7
20260505033449 21 167 8.0 9.7 0.00 0.00 0.00 70 1004.6
20260505032948 20 174 6.4 6.4 0.00 0.00 0.00 69 1004.7
20260505032445 21 203 3.2 4.8 0.00 0.00 0.00 70 1004.7
20260505031941 21 192 3.2 3.2 0.00 0.00 0.00 69 1004.8
20260505031438 21 188 3.2 3.2 0.00 0.00 0.00 69 1004.4
20260505030935 21 188 4.8 6.4 0.00 0.00 0.00 68 1004.4
20260505030431 21 193 6.4 9.7 0.00 0.00 0.00 68 1004.4
20260505025926 21 184 4.8 6.4 0.00 0.00 0.00 68 1004.2
20260505025424 21 195 4.8 4.8 0.00 0.00 0.00 68 1004.2
20260505024923 21 182 3.2 4.8 0.00 0.00 0.00 67 1004.3
20260505024420 21 180 3.2 3.2 0.00 0.00 0.00 67 1004.2
20260505023917 21 192 1.6 3.2 0.00 0.00 0.00 66 1004.2
20260505023414 21 184 3.2 3.2 0.00 0.00 0.00 66 1003.9
20260505022911 21 184 3.2 3.2 0.00 0.00 0.00 65 1003.9
20260505022408 21 186 3.2 3.2 0.00 0.00 0.00 64 1003.9
20260505021905 21 185 3.2 4.8 0.00 0.00 0.00 64 1003.8
20260505021402 22 186 3.2 3.2 0.00 0.00 0.00 63 1003.8
20260505020858 22 181 4.8 4.8 0.00 0.00 0.00 62 1003.5
20260505020353 22 179 3.2 4.8 0.00 0.00 0.00 62 1003.5
20260505015850 22 192 3.2 3.2 0.00 0.00 0.00 62 1003.3
20260505015347 22 198 1.6 1.6 0.00 0.00 0.00 61 1003.4
20260505014845 22 199 3.2 3.2 0.00 0.00 0.00 60 1003.5
20260505014342 22 207 4.8 4.8 0.00 0.00 0.00 60 1003.5
20260505013838 22 196 3.2 3.2 0.00 0.00 0.00 59 1003.3
20260505013335 22 187 3.2 4.8 0.00 0.00 0.00 59 1003.3
20260505012834 22 188 0.0 1.6 0.00 0.00 0.00 60 1003.3
20260505012331 22 200 1.6 1.6 0.00 0.00 0.00 59 1003.1
20260505011827 23 200 1.6 1.6 0.00 0.00 0.00 58 1002.9
20260505011324 23 200 1.6 1.6 0.00 0.00 0.00 58 1003.0
20260505010820 23 200 1.6 1.6 0.00 0.00 0.00 57 1002.9
20260505010316 23 200 0.0 0.0 0.00 0.00 0.00 57 1002.7
20260505005812 23 200 0.0 1.6 0.00 0.00 0.00 56 1002.6
20260505005310 24 200 1.6 1.6 0.00 0.00 0.00 56 1002.8
20260505004807 24 200 1.6 3.2 0.00 0.00 0.00 55 1002.7
20260505004303 25 200 1.6 3.2 0.00 0.00 0.00 54 1002.9
20260505003801 25 200 1.6 1.6 0.00 0.00 0.00 54 1002.6
20260505003258 25 213 0.0 0.0 0.00 0.00 0.00 52 1002.5
20260505002754 25 214 0.0 0.0 0.00 0.00 0.00 53 1002.5
20260505002251 25 214 1.6 3.2 0.00 0.00 0.00 52 1002.5
20260505001749 26 234 1.6 1.6 0.00 0.00 0.00 51 1002.6
20260505001246 26 240 3.2 3.2 0.00 0.00 0.00 49 1002.6
20260505000743 26 243 1.6 1.6 0.00 0.00 0.00 51 1002.4
20260505000241 26 257 1.6 1.6 0.00 0.00 0.00 50 1002.5
20260504235737 25 248 1.6 1.6 0.00 0.00 0.00 50 1002.7
20260504235233 25 243 1.6 3.2 0.00 0.00 0.00 50 1002.5
20260504234731 25 240 1.6 3.2 0.00 0.00 0.00 49 1002.6
20260504234228 26 240 3.2 4.8 0.00 0.00 0.00 49 1002.7
20260504233724 26 251 4.8 4.8 0.00 0.00 0.00 49 1002.6
20260504233220 26 250 4.8 4.8 0.00 0.00 0.00 48 1002.5
20260504232718 26 232 3.2 4.8 0.00 0.00 0.00 48 1002.7
20260504232214 26 253 4.8 6.4 0.00 0.00 0.00 47 1002.7
20260504231711 26 239 4.8 6.4 0.00 0.00 0.00 48 1002.7
20260504231207 26 232 9.7 11.3 0.00 0.00 0.00 46 1002.7
20260504230703 26 217 6.4 9.7 0.00 0.00 0.00 47 1002.7
20260504230203 27 220 12.9 14.5 0.00 0.00 0.00 44 1002.5
20260504225701 27 235 9.7 12.9 0.00 0.00 0.00 44 1002.6
20260504225156 27 237 11.3 14.5 0.00 0.00 0.00 44 1002.7
20260504224654 27 227 12.9 16.1 0.00 0.00 0.00 44 1002.6
20260504224150 27 246 6.4 6.4 0.00 0.00 0.00 46 1002.6
20260504223647 27 258 6.4 6.4 0.00 0.00 0.00 46 1002.7
20260504223143 27 247 12.9 14.5 0.00 0.00 0.00 44 1002.7
20260504222640 27 234 8.0 9.7 0.00 0.00 0.00 42 1002.6
20260504222137 27 212 9.7 11.3 0.00 0.00 0.00 43 1002.6
20260504221634 27 223 9.7 11.3 0.00 0.00 0.00 44 1002.6
20260504221131 27 250 9.7 11.3 0.00 0.00 0.00 45 1002.7
20260504220627 27 257 9.7 12.9 0.00 0.00 0.00 43 1002.7
20260504220126 27 205 6.4 6.4 0.00 0.00 0.00 45 1002.7
20260504215621 26 214 6.4 9.7 0.00 0.00 0.00 46 1002.9
20260504215119 26 203 9.7 11.3 0.00 0.00 0.00 44 1002.8
20260504214615 26 184 11.3 14.5 0.00 0.00 0.00 44 1003.0
20260504214111 26 259 9.7 12.9 0.00 0.00 0.00 44 1003.2
20260504213608 26 250 12.9 14.5 0.00 0.00 0.00 45 1003.1
20260504213105 26 205 9.7 12.9 0.00 0.00 0.00 49 1003.2
20260504212601 26 231 11.3 12.9 0.00 0.00 0.00 44 1003.3
20260504212058 26 220 14.5 20.9 0.00 0.00 0.00 46 1003.1
20260504211555 26 215 9.7 12.9 0.00 0.00 0.00 48 1003.2
20260504211052 26 210 4.8 6.4 0.00 0.00 0.00 50 1003.1
20260504210549 26 215 12.9 16.1 0.00 0.00 0.00 47 1003.2
20260504210045 26 203 12.9 17.7 0.00 0.00 0.00 50 1003.3
20260504205543 26 217 9.7 14.5 0.00 0.00 0.00 49 1003.3
20260504205041 26 213 14.5 17.7 0.00 0.00 0.00 48 1003.3
20260504204539 26 207 6.4 9.7 0.00 0.00 0.00 49 1003.3
20260504204038 26 192 14.5 17.7 0.00 0.00 0.00 47 1003.2
20260504203535 26 220 14.5 16.1 0.00 0.00 0.00 47 1003.7
20260504203033 26 201 12.9 16.1 0.00 0.00 0.00 47 1003.5
20260504202528 27 211 16.1 20.9 0.00 0.00 0.00 45 1003.5
20260504202025 27 215 11.3 16.1 0.00 0.00 0.00 46 1003.5
20260504201522 27 207 11.3 14.5 0.00 0.00 0.00 45 1003.5
20260504201020 27 207 14.5 16.1 0.00 0.00 0.00 45 1003.5
20260504200516 27 196 9.7 12.9 0.00 0.00 0.00 45 1003.5
20260504200013 27 211 11.3 14.5 0.00 0.00 0.00 45 1003.6
20260504195509 27 233 8.0 9.7 0.00 0.00 0.00 46 1003.7
20260504195006 27 239 9.7 12.9 0.00 0.00 0.00 45 1003.5
20260504194502 27 251 16.1 20.9 0.00 0.00 0.00 41 1003.6
20260504193957 27 242 14.5 17.7 0.00 0.00 0.00 42 1003.5
20260504193455 27 225 9.7 12.9 0.00 0.00 0.00 43 1003.8
20260504192954 27 205 17.7 20.9 0.00 0.00 0.00 42 1003.6
20260504192450 26 244 16.1 17.7 0.00 0.00 0.00 46 1003.5
20260504191949 26 243 14.5 17.7 0.00 0.00 0.00 43 1003.6
20260504191447 26 219 16.1 17.7 0.00 0.00 0.00 45 1003.7
20260504190942 27 241 9.7 11.3 0.00 0.00 0.00 44 1003.5
20260504190438 26 207 12.9 14.5 0.00 0.00 0.00 45 1003.6
20260504185935 26 229 14.5 17.7 0.00 0.00 0.00 42 1003.9
20260504185432 26 209 9.7 12.9 0.00 0.00 0.00 44 1003.7
20260504184928 26 231 14.5 22.5 0.00 0.00 0.00 47 1003.7
20260504184424 26 253 16.1 16.1 0.00 0.00 0.00 47 1003.9
20260504183920 26 270 12.9 16.1 0.00 0.00 0.00 47 1003.7
20260504183417 26 255 6.4 6.4 0.00 0.00 0.00 52 1003.9
20260504182915 25 229 11.3 11.3 0.00 0.00 0.00 49 1003.9
20260504182412 25 225 11.3 14.5 0.00 0.00 0.00 48 1004.2
20260504181909 25 233 12.9 14.5 0.00 0.00 0.00 49 1004.0
20260504181406 25 255 9.7 14.5 0.00 0.00 0.00 50 1004.1
20260504180905 25 206 9.7 11.3 0.00 0.00 0.00 49 1004.1
20260504180403 25 254 19.3 24.1 0.00 0.00 0.00 48 1003.9
20260504175901 25 246 14.5 17.7 0.00 0.00 0.00 48 1004.1
20260504175357 25 246 9.7 14.5 0.00 0.00 0.00 50 1004.2
20260504174855 25 238 9.7 12.9 0.00 0.00 0.00 51 1004.3
20260504174353 25 225 12.9 14.5 0.00 0.00 0.00 48 1004.2
20260504173850 25 226 9.7 12.9 0.00 0.00 0.00 50 1004.4
20260504173346 24 224 9.7 12.9 0.00 0.00 0.00 51 1004.4
20260504172844 24 215 11.3 12.9 0.00 0.00 0.00 48 1004.2
20260504172340 23 203 9.7 12.9 0.00 0.00 0.00 49 1004.2
20260504171836 23 190 8.0 9.7 0.00 0.00 0.00 51 1004.6
20260504171333 23 184 16.1 17.7 0.00 0.00 0.00 51 1004.6
20260504170830 23 241 14.5 16.1 0.00 0.00 0.00 50 1004.4
20260504170327 23 225 17.7 20.9 0.00 0.00 0.00 49 1004.7
20260504160245 22 280 19.3 25.7 0.00 0.00 0.00 51 1004.6
20260504150711 21 261 17.7 22.5 0.00 0.00 0.00 52 1005.0
20260504150208 21 241 17.7 22.5 0.00 0.00 0.00 53 1004.8
20260504141137 19 216 11.3 14.5 0.00 0.00 0.00 56 1004.9
20260504140633 18 224 14.5 16.1 0.00 0.00 0.00 57 1005.1
20260504140129 19 242 12.9 16.1 0.00 0.00 0.00 57 1005.0
20260504130557 18 210 8.0 11.3 0.00 0.00 0.00 59 1004.7
20260504110439 16 187 8.0 9.7 0.00 0.00 0.00 59 1005.3
20260504100355 17 237 9.7 11.3 0.00 0.00 0.00 56 1005.7
20260504081749 18 224 9.7 14.5 0.00 0.00 0.00 53 1005.9
20260504081245 18 216 9.7 20.9 0.00 0.00 0.00 53 1005.8
20260504080742 18 215 16.1 17.7 0.00 0.00 0.00 53 1006.0
20260504080238 18 208 11.3 14.5 0.00 0.00 0.00 54 1006.1